TimeCST,TemperatureF,Dew PointF,Humidity,Sea Level PressureIn,VisibilityMPH,Wind Direction,Wind SpeedMPH,Gust SpeedMPH,PrecipitationIn,Events,Conditions,WindDirDegrees,DateUTC
12:13 AM,17.6,15.8,93,30.24,10.0,North,6.9,-,N/A,,Clear,10,2013-02-28 06:13:00
12:34 AM,15.8,15.8,100,30.25,10.0,North,6.9,-,N/A,,Clear,10,2013-02-28 06:34:00
12:54 AM,15.8,12.2,86,30.25,10.0,North,4.6,-,N/A,,Clear,350,2013-02-28 06:54:00
1:13 AM,14.0,12.2,93,30.25,10.0,North,5.8,-,N/A,,Clear,350,2013-02-28 07:13:00
1:34 AM,15.8,12.2,86,30.25,10.0,North,5.8,-,N/A,,Clear,350,2013-02-28 07:34:00
1:54 AM,14.0,12.2,93,30.25,10.0,NNW,4.6,-,N/A,,Clear,340,2013-02-28 07:54:00
2:13 AM,14.0,12.2,93,30.26,10.0,NW,5.8,-,N/A,,Clear,320,2013-02-28 08:13:00
2:21 AM,12.2,12.2,100,30.26,10.0,NW,5.8,-,N/A,,Scattered Clouds,320,2013-02-28 08:21:00
3:12 AM,15.8,14.0,93,30.27,10.0,NNW,6.9,-,N/A,,Overcast,330,2013-02-28 09:12:00
3:13 AM,15.8,14.0,93,30.27,10.0,NNW,6.9,-,N/A,,Overcast,330,2013-02-28 09:13:00
3:53 AM,15.8,14.0,93,30.28,10.0,NNW,8.1,-,N/A,,Overcast,330,2013-02-28 09:53:00
4:34 AM,17.6,15.8,93,30.28,10.0,NNW,6.9,-,N/A,,Overcast,340,2013-02-28 10:34:00
4:53 AM,17.6,15.8,93,30.28,10.0,North,9.2,-,N/A,,Overcast,350,2013-02-28 10:53:00
5:14 AM,17.6,15.8,93,30.29,10.0,NNW,11.5,-,N/A,,Overcast,340,2013-02-28 11:14:00
5:33 AM,17.6,15.8,93,30.29,10.0,NNW,10.4,-,N/A,,Overcast,340,2013-02-28 11:33:00
6:14 AM,17.6,15.8,93,30.29,10.0,North,5.8,-,N/A,,Overcast,360,2013-02-28 12:14:00
6:34 AM,17.6,15.8,93,30.29,10.0,North,6.9,-,N/A,,Overcast,360,2013-02-28 12:34:00
6:54 AM,17.6,15.8,93,30.30,10.0,North,5.8,-,N/A,,Overcast,360,2013-02-28 12:54:00
7:14 AM,17.6,15.8,93,30.30,10.0,North,4.6,-,N/A,,Overcast,10,2013-02-28 13:14:00
7:34 AM,17.6,15.8,93,30.31,10.0,Calm,Calm,-,N/A,,Overcast,0,2013-02-28 13:34:00
7:54 AM,17.6,15.8,93,30.31,10.0,North,3.5,-,N/A,,Mostly Cloudy,350,2013-02-28 13:54:00
8:14 AM,17.6,15.8,93,30.31,10.0,North,5.8,-,N/A,,Scattered Clouds,10,2013-02-28 14:14:00
8:34 AM,17.6,15.8,93,30.31,10.0,NNE,4.6,-,N/A,,Clear,30,2013-02-28 14:34:00
8:54 AM,19.4,15.8,86,30.32,10.0,ENE,6.9,-,N/A,,Clear,70,2013-02-28 14:54:00
9:14 AM,21.2,15.8,80,30.33,10.0,ENE,5.8,-,N/A,,Clear,60,2013-02-28 15:14:00
9:34 AM,21.2,15.8,80,30.33,10.0,NE,9.2,-,N/A,,Clear,50,2013-02-28 15:34:00
9:54 AM,21.2,15.8,80,30.33,10.0,ENE,8.1,-,N/A,,Clear,60,2013-02-28 15:54:00
10:14 AM,21.2,15.8,80,30.34,10.0,NNE,5.8,-,N/A,,Clear,30,2013-02-28 16:14:00
10:34 AM,19.4,14.0,80,30.34,10.0,NNW,6.9,-,N/A,,Clear,330,2013-02-28 16:34:00
10:54 AM,17.6,14.0,86,30.33,10.0,NNW,6.9,-,N/A,,Clear,340,2013-02-28 16:54:00
11:14 AM,19.4,14.0,80,30.33,10.0,NNE,8.1,-,N/A,,Clear,20,2013-02-28 17:14:00
11:34 AM,19.4,14.0,80,30.33,10.0,NNE,5.8,-,N/A,,Clear,20,2013-02-28 17:34:00
11:54 AM,19.4,15.8,86,30.33,10.0,NNW,5.8,-,N/A,,Clear,330,2013-02-28 17:54:00
12:13 PM,19.4,15.8,86,30.33,10.0,NW,6.9,-,N/A,,Clear,320,2013-02-28 18:13:00
12:34 PM,19.4,15.8,86,30.33,10.0,NW,5.8,-,N/A,,Clear,320,2013-02-28 18:34:00
12:54 PM,21.2,15.8,80,30.32,10.0,NW,5.8,-,N/A,,Clear,310,2013-02-28 18:54:00
1:13 PM,21.2,15.8,80,30.32,10.0,NNW,5.8,-,N/A,,Clear,330,2013-02-28 19:13:00
1:34 PM,23.0,17.6,80,30.31,10.0,NW,6.9,-,N/A,,Clear,320,2013-02-28 19:34:00
1:54 PM,23.0,17.6,80,30.32,10.0,NW,9.2,-,N/A,,Clear,320,2013-02-28 19:54:00
2:13 PM,23.0,17.6,80,30.31,10.0,NW,9.2,-,N/A,,Clear,320,2013-02-28 20:13:00
2:34 PM,23.0,17.6,80,30.31,10.0,NNW,9.2,-,N/A,,Clear,330,2013-02-28 20:34:00
2:54 PM,21.2,17.6,86,30.31,10.0,NNW,12.7,-,N/A,,Clear,340,2013-02-28 20:54:00
3:34 PM,21.2,17.6,86,30.31,10.0,NNW,11.5,-,N/A,,Clear,340,2013-02-28 21:34:00
3:54 PM,21.2,17.6,86,30.31,10.0,NNW,12.7,-,N/A,,Clear,340,2013-02-28 21:54:00
4:13 PM,21.2,17.6,86,30.31,10.0,NNW,12.7,-,N/A,,Clear,340,2013-02-28 22:13:00
4:34 PM,21.2,17.6,86,30.31,10.0,NNW,13.8,-,N/A,,Clear,340,2013-02-28 22:34:00
4:54 PM,21.2,17.6,86,30.31,10.0,NNW,10.4,-,N/A,,Clear,330,2013-02-28 22:54:00
5:13 PM,21.2,15.8,80,30.31,10.0,NNW,11.5,-,N/A,,Clear,330,2013-02-28 23:13:00
5:34 PM,19.4,15.8,86,30.32,10.0,NNW,10.4,-,N/A,,Clear,330,2013-02-28 23:34:00
5:54 PM,19.4,15.8,86,30.32,10.0,North,12.7,-,N/A,,Scattered Clouds,350,2013-02-28 23:54:00
6:13 PM,19.4,14.0,80,30.31,10.0,North,12.7,-,N/A,,Mostly Cloudy,350,2013-03-01 00:13:00
6:34 PM,19.4,14.0,80,30.31,10.0,North,11.5,-,N/A,,Mostly Cloudy,350,2013-03-01 00:34:00
6:54 PM,17.6,14.0,86,30.32,10.0,North,11.5,-,N/A,,Mostly Cloudy,350,2013-03-01 00:54:00
7:14 PM,17.6,12.2,79,30.32,10.0,North,11.5,-,N/A,,Scattered Clouds,10,2013-03-01 01:14:00
7:34 PM,15.8,12.2,86,30.32,10.0,North,9.2,-,N/A,,Mostly Cloudy,10,2013-03-01 01:34:00
7:54 PM,15.8,12.2,86,30.33,10.0,NW,6.9,-,N/A,,Mostly Cloudy,320,2013-03-01 01:54:00
8:14 PM,12.2,10.4,92,30.34,10.0,NNW,6.9,-,N/A,,Scattered Clouds,330,2013-03-01 02:14:00
8:34 PM,12.2,10.4,92,30.34,10.0,North,4.6,-,N/A,,Scattered Clouds,360,2013-03-01 02:34:00
8:54 PM,12.2,10.4,92,30.34,10.0,NNW,3.5,-,N/A,,Scattered Clouds,330,2013-03-01 02:54:00
9:14 PM,12.2,8.6,85,30.34,10.0,NW,5.8,-,N/A,,Clear,320,2013-03-01 03:14:00
9:34 PM,10.4,8.6,92,30.34,10.0,NNW,5.8,-,N/A,,Clear,340,2013-03-01 03:34:00
9:54 PM,10.4,8.6,92,30.34,10.0,NNW,4.6,-,N/A,,Clear,330,2013-03-01 03:54:00
10:14 PM,10.4,6.8,85,30.34,10.0,NNW,5.8,-,N/A,,Clear,340,2013-03-01 04:14:00
10:34 PM,10.4,6.8,85,30.35,10.0,North,4.6,-,N/A,,Clear,10,2013-03-01 04:34:00
10:54 PM,8.6,5.0,85,30.35,10.0,NNE,6.9,-,N/A,,Clear,20,2013-03-01 04:54:00
11:34 PM,6.8,3.2,85,30.35,10.0,NNE,6.9,-,N/A,,Clear,30,2013-03-01 05:34:00
11:54 PM,5.0,1.4,85,30.34,10.0,NE,5.8,-,N/A,,Clear,50,2013-03-01 05:54:00